User: anonymous   Login
Location: Unspecified
(0.0000°N, 0.0000°E)
Time: 15:21:19
(UTC+00:00)
Language:

FORMOSAT 3E - Orbit

View from above orbital plane
View from above orbital plane
View from above satellite
View from above satellite

Ground track
Ground track

The orbit data is extracted from the following two-line orbital elements,

1 29051U 06011E   18051.18855691  .00000058  00000-0  38806-4 0  9995
2 29051  72.0066  23.5031 0069983 310.3867  49.1173 14.28652157621035
Epoch (UTC): 20 February 2018 04:31:31
Eccentricity: 0.0069983
inclination: 72.0066°
perigee height: 746 km
apogee height: 846 km
right ascension of ascending node: 23.5031°
argument of perigee: 310.3867°
revolutions per day: 14.28652157
mean anomaly at epoch: 49.1173°
orbit number at epoch: 62103

The dashed part of the orbit path shows where the satellite is in the earth's shadow,  

DLR